Location: Unspecified
(51.0950°N, 12.9690°E)
Time: 16:12:14
(UTC+00:00)

Cosmos 1864 Rocket - Pass Details

Date: 28 October 2021
Orbit: 950 x 998 km, 82.9° (Epoch: 02 December)

Event Time Altitude Azimuth Distance (km) Brightness Sun altitude
Rises 18:48:39 0° 189° (S) 3,700 7.5 -28.6°
Reaches altitude 10° 18:51:11 10° 189° (S) 2,751 6.8 -28.9°
Maximum altitude 18:57:31 87° 277° (W) 996 4.4 -29.9°
Drops below altitude 10° 19:03:50 10° 9° (N) 2,741 6.9 -30.8°
Sets 19:06:21 0° 10° (N) 3,685 7.6 -31.2°
